THOR ABLESTAR DEB, 126

Orbit data source: Space-Track

THOR ABLESTAR DEB, 126 is space debris in LEO originally from a launch on Thu, 29 Jun 1961 UTC launched from the Air Force Eastern Test Range (AFETR). Debris objects in space refer to the collection of defunct objects orbiting the Earth. Examples of debris include non-operational satellites, rocket bodies, and fragments generated from explosions, collisions, or faulty payload assembly.

Loading next visibility...
Identifier
126, 1961-015L
Orbit
LEO
Country
Flag of USUS
Related business
Manufacturer
Unknown
Mission
Spacecraft
Bus & Motor
Unknown
Mass
Unknown
Launch date (UTC)
1961-06-29 (64 years ago)
Launch vehicle
Unknown
Launch site
Air Force Eastern Test Range (AFETR)
Object type
Payload
Rocket body
Debris
Shape & HBR
Unknown shape, 0.4 m
Radar Cross Section
Medium (>0.1 m² and <1 m²)

Expand to show TLE details & history
Last TLE update: 15 hours ago

TLE from 15 hours ago
0 THOR ABLESTAR DEB
1 00126U 61015L   25349.95409172  .00001259  00000-0  38499-3 0  9995
2 00126  66.7089 224.4032 0055773  25.7559 334.6305 14.44245490338133
Epoch: 2025-12-15T22:53Z
TLE epoch observation values (Epoch: 2025-12-15T22:53:53.524Z)
Latitude
0.00005°
Longitude
156.08496°
Altitude
710.77 km
Speed
7.52 km/s
True Right ascension
14h 57m 36s
True Declination
0° 00' 00"
Sunlit
Object was in daylight at epoch
Visualization orbit readout
Latitude
Unknown
Longitude
Unknown
Altitude
Unknown
Speed
Unknown
Apparent Right ascension
Unknown
Apparent Declination
Unknown
Sunlit
N/A
Visualization observer readout
Local Sidereal Time
12:26:04
Azimuth
Unknown
Elevation
Unknown
Doppler factor
Unknown
Orbital elements
Apogee altitude
782.585 km
Perigee altitude
703.153 km
Semi-major axis
7,121.006 km
Eccentricity
0.00558
Inclination
66.7089°
RAAN
224.4032°
Arg. of periapsis
25.7559°
True anomaly
334.35494°
Mean anomaly
334.6305°
Eccentric anomaly
334.49289°
Mean motion
3.61186 °/min
Orbital period
99.67 mins
BSTAR
0.00038499
Loading maneuver chart data...
Computing Atmospheric mass density...

Documentation

Showing up to 5 results
|